www.pogodaiklimat.ru

Погода и климат >> Архив погоды >> Индонезия >> Лабуха


ПОГОДА в Лабухе

  • Прогноз погоды в Лабухе
  • Монитор погоды в Лабухе

АРХИВ ПОГОДЫ в Лабухе

Время (UTC), дата Ветер
(напр.,м/с)
 
Видим.   Явления Облачность Т
(С)
Тd
(С)
f
(%)
Тe
(С)
Тes
(С)
Комфортность P
(гПа)
Po
(гПа)
Тmin
(С)
Tmax
(С)
R
(мм)
R24
(мм)
S
(см)
00 18.06 СЗ 1 9000 м {дождь} 9/4 300 м
[Cu Sc Ac As Cs]
+25.8 +24.0 90 +36 +38 очень
душно
1011.8 1009.6 +27.6 33
03 18.06 З 4 9000 м 8/4 500 м
[Cu Sc Ac As Ci sp]
+29.0 +26.4 86 +44 +50 опасность
перегрева
1010.1 1008.3
06 18.06 З 3 8000 м осадки на расстоянии 9/4 500 м
[Cu Sc Ac As Cs]
+29.4 +24.2 74 +41 +44 опасность
перегрева
1008.9 1006.7
09 18.06 ЮЗ 4 9000 м 8/4 540 м
[Cu Sc Ac As Cs]
+28.0 +23.6 77 +38 +38 очень
душно
1009.3 1007.1
12 18.06 штиль 0 9000 м 6/4 540 м
[Cu Sc Ac As Ci sp]
+26.2 +24.1 88 +36 +36 очень
душно
1010.8 1008.6 +29.8
15 18.06 штиль 0 9000 м 8/3 540 м
[Cu Sc Ac As Ci sp]
+25.1 +24.0 94 +35 +35 очень
душно
1011.0 1008.8
18 18.06 штиль 0 9000 м 8/3 540 м
[Cu Sc Ac As Ci sp]
+24.6 +23.0 91 +33 +33 очень
душно
1009.6 1007.4
21 18.06 штиль 0 9000 м 6/3 540 м
[Cu Sc Ac As Ci sp]
+23.6 +22.3 92 +31 +31 очень
душно
1009.7 1007.5
00 19.06 С 2 9000 м 5/3 540 м
[Cu Sc Ac As Ci sp]
+27.4 +23.6 80 +37 +42 очень
душно
1010.7 1008.6 +23.2
03 19.06 ЮЗ 3 9000 м 6/4 540 м
[Cu Sc Ac As Ci sp]
+29.2 +22.1 66 +38 +45 очень
душно
1009.9 1007.8
06 19.06 З 4 9000 м 6/4 540 м
[Cu Sc Ac As Ci sp]
+29.8 +23.1 67 +40 +44 очень
душно
1008.3 1006.1
09 19.06 З 2 10 км 3/3 600 м
[Cu med, cong Ac trans Ci sp]
+29.2 +23.4 71 +40 +40 очень
душно
1008.2 1006.1
12 19.06 штиль 0 10 км 8/3 540 м
[Cu Sc Ac As Ci sp]
+25.7 +23.4 87 +35 +35 очень
душно
1010.0 1007.8 +30.4
15 19.06 штиль 0 10 км 6/3 540 м
[Cu Sc Ac As Ci sp]
+24.2 +22.6 91 +32 +32 очень
душно
1010.2 1008.1
21 19.06 штиль 0 9000 м 8/4 540 м
[Cu Sc Ac As Ci sp]
+23.2 +21.9 92 +31 +31 очень
душно
1009.1 1007.0
00 20.06 З 1 9000 м 8/4 540 м
[Cu Sc Ac As Ci sp]
+27.2 +23.3 79 +37 +40 очень
душно
1010.9 1008.8 +23.2
03 20.06 З 4 9000 м 8/4 540 м
[Cu Sc Ac As Ci sp]
+29.4 +24.5 75 +42 +47 опасность
перегрева
1010.5 1008.3
06 20.06 З 4 9000 м 8/4 540 м
[Cu Sc Ac As Ci sp]
+30.0 +23.9 70 +41 +45 опасность
перегрева
1008.9 1006.8
09 20.06 З 3 9000 м 8/4 540 м
[Cu Sc Ac As Ci sp]
+28.6 +24.2 77 +40 +40 очень
душно
1009.2 1007.0
12 20.06 штиль 0 9000 м 8/4 540 м
[Cu Sc Ac As Ci sp]
+25.8 +23.7 88 +35 +35 очень
душно
1011.6 1009.3 +31.0
15 20.06 штиль 0 10 км 5/1 570 м
[Cu med, cong Ac As Ci sp]
+24.0 +22.4 91 +31 +31 очень
душно
1011.3 1009.1
18 20.06 штиль 0 10 км 5/1 570 м
[Cu med, cong Ac As Ci sp]
+24.0 +22.4 91 +31 +31 очень
душно
1011.3 1009.1
21 20.06 0 н/о +21.6 1009.7 1007.5
00 21.06 С 1 10 км 4/1 570 м
[Cu med, cong Ac trans Ci sp]
+27.0 +23.7 82 +37 +43 очень
душно
1010.4 1008.3 +22.5
03 21.06 З 3 10 км 4/3 540 м
[Cu Sc Ac trans Ci sp]
+29.7 +24.1 72 +41 +51 опасность
перегрева
1009.3 1007.2
06 21.06 З 4 10 км 6/5 540 м
[Cu Sc Ac trans Ci sp]
+29.1 +24.0 74 +40 +44 очень
душно
1007.6 1005.4
09 21.06 ЮЗ 3 9000 м 6/5 500 м
[Cu Sc Ac trans Ci sp]
+28.8 +23.8 74 +39 +40 очень
душно
1008.7 1006.6
12 21.06 С 1 9000 м 6/5 500 м
[Cu Sc Ac As Ci sp]
+26.2 +24.1 88 +36 +36 очень
душно
1010.8 1008.6 +30.4
15 21.06 штиль 0 9000 м 6/4 540 м
[Cu Sc Ac As Ci sp]
+24.4 +23.1 92 +32 +32 очень
душно
1010.6 1008.4
18 21.06 штиль 0 10 км 4/3 570 м
[Cu med, cong Ac trans Ci sp]
+23.2 +21.9 92 +31 +31 очень
душно
1009.3 1007.1
21 21.06 штиль 0 10 км 4/3 570 м
[Cu med, cong Ac trans Ci sp]
+22.8 +21.8 94 +31 +31 очень
душно
1009.5 1007.4
00 22.06 штиль 0 10 км 4/1 570 м
[Cu med, cong Ac trans Ci sp]
+26.8 +23.8 84 +37 +44 очень
душно
1010.2 1008.0 +22.8
03 22.06 З 3 10 км 4/1 570 м
[Cu med, cong Ac trans Ci sp]
+30.2 +23.5 67 +41 +52 опасность
перегрева
1008.8 1006.6
06 22.06 СВ 4 10 км 4/1 570 м
[Cu med, cong Ac trans Ci sp]
+31.6 +22.2 58 +41 +47 опасность
перегрева
1006.8 1004.6
09 22.06 СВ 3 10 км 4/3 570 м
[Cu med, cong Ac trans Ci sp]
+29.8 +21.5 61 +38 +38 очень
душно
1007.5 1005.4
12 22.06 ЮВ 2 10 км 4/3 570 м
[Cu med, cong Ac trans Ci sp]
+26.6 +21.8 75 +34 +34 очень
душно
1009.7 1007.5 +31.8
15 22.06 штиль 0 10 км 4/3 570 м
[Cu med, cong Ac trans Ci sp]
+23.6 +22.0 91 +30 +30 очень
душно
1010.0 1007.9
18 22.06 штиль 0 10 км 4/3 570 м
[Cu med, cong Ac trans Ci sp]
+22.6 +21.6 94 +30 +30 очень
душно
1009.2 1007.0
21 22.06 штиль 0 10 км 3/1 600 м
[Cu med, cong Ac trans Ci sp]
+21.6 +19.0 85 +26 +26 душно 1009.6 1007.4
00 23.06 СЗ 1 10 км 3/1 600 м
[Cu med, cong Ac trans Ci sp]
+25.8 +22.2 81 +34 +40 очень
душно
1010.7 1008.4 +21.4
03 23.06 З 3 10 км 3/3 570 м
[Cu med, cong Ac trans Ci sp]
+29.6 +22.9 67 +39 +51 опасность
солнечного
удара
1010.1 1007.9
06 23.06 З 3 10 км 4/3 570 м
[Cu med, cong Ac trans Ci sp]
+31.0 +22.7 61 +41 +47 опасность
перегрева
1008.2 1006.1
09 23.06 З 1 10 км 4/1 570 м
[Cu med, cong Ac trans Ci sp]
+29.2 +23.7 72 +40 +40 очень
душно
1008.6 1006.5
12 23.06 штиль 0 10 км 4/1 570 м
[Cu med, cong Ac trans Ci sp]
+26.4 +23.4 84 +36 +36 очень
душно
1010.6 1008.5 +31.2
15 23.06 штиль 0 10 км 4/1 570 м
[Cu med, cong Ac trans Ci sp]
+24.8 +22.3 86 +32 +32 очень
душно
1011.2 1008.0
18 23.06 штиль 0 10 км 4/1 570 м
[Cu med, cong Ac trans Ci sp]
+24.0 +23.0 94 +32 +32 очень
душно
1010.4 1008.2
21 23.06 штиль 0 10 км 4/1 570 м
[Cu med, cong Ac trans Ci sp]
+24.2 +23.2 94 +32 +32 очень
душно
1011.1 1008.9
00 24.06 СВ 2 10 км 6/4 540 м
[Cu Sc Ac As Ci sp]
+27.6 +24.1 81 +38 +42 очень
душно
1012.4 1010.2 +23.7
03 24.06 ЮЗ 1 10 км 6/4 540 м
[Cu Sc Ac As Ci sp]
+30.0 +23.6 69 +41 +52 опасность
перегрева
1011.5 1009.3
06 24.06 СВ 3 10 км 4/3 570 м
[Cu med, cong Ac trans Ci sp]
+32.0 +23.0 59 +42 +48 опасность
перегрева
1009.3 1007.1
09 24.06 СВ 2 10 км 4/1 570 м
[Cu med, cong Ac trans Ci sp]
+29.6 +22.5 66 +39 +39 очень
душно
1009.5 1007.3
12 24.06 штиль 0 10 км 4/3 540 м
[Cu Sc Ac trans Ci sp]
+27.0 +22.4 76 +35 +35 очень
душно
1012.0 1009.8 +32.1
15 24.06 штиль 0 10 км 4/3 540 м
[Cu Sc Ac trans Ci sp]
+26.0 +22.7 82 +34 +34 очень
душно
1012.4 1010.2
18 24.06 штиль 0 10 км 4/1 570 м
[Cu med, cong Ac trans Ci fib]
+23.6 +22.0 91 +30 +30 очень
душно
1011.4 1009.2
21 24.06 штиль 0 10 км 4/1 570 м
[Cu med, cong Ac trans Ci sp]
+22.6 +21.3 92 +30 +30 очень
душно
1011.5 1009.3

 

Местоположение метеостанции Лабуха (Индонезия): широта -0.63 долгота 127.50 высота над уровнем моря 3 м.

В архиве по умолчанию представлена погода в Лабухе за последнюю неделю. Архивные данные за месяц целиком и за предыдущие месяцы, начиная с января 2011 года, Вы можете получить, выбрав интересующий диапазон дат из раскрывающегося списка и нажав кнопку "Ввод!".


*Определитесь, кто Вы:
робот инопланетянин человек

Внимание! Время в таблицах - всемирное. Для получения местного времени необходимо прибавить поправку, которая равна 9 ч.

Смотрите также архив погоды в соседних городах и на ближайших метеорологических станциях:

Погода в Тернате (Индонезия) (156 км)
Погода на Санане (Индонезия) (232 км)
Погода в Голеа (Индонезия) (275 км)
Погода в Намлеа (Индонезия) (295 км)
Погода в Амахаи (Индонезия) (339 км)
Погода в Битунге (Индонезия) (345 км)
Погода в Амбоне (Индонезия) (347 км)
Погода в Менадо (Индонезия) (375 км)
Погода в Тауне (Индонезия) (398 км)
Погода в Аэропорту Соронг-Джефман (Индонезия) (403 км)

Пояснения к столбцам:

Ветер - указаны скорость ветра в м/с - средняя за 10 мин, порывы в срок и между сроками (в фигурных скобках) и направление, откуда дует ветер: С - северный, СВ - северо-восточный, В - восточный, ЮВ - юго-восточный, Ю - южный, ЮЗ - юго-западный, З - западный, СЗ - северо-западный.
Видимость - горизонтальная дальность видимости в метрах или километрах. При видимости от 1 до 10 км при отсутствии осадков обычно наблюдается дымка, при ухудшении видимости до 1 км и менее - туман. В сухую погоду видимость может ухудшаться дымом, пылью или мглою.
Явления - указаны атмосферные явления, наблюдавшиеся в срок или в последний час перед сроком; фигурными скобками обозначены явления, наблюдавшиеся между сроками (за 1-3 часа до срока); квадратными скобками обозначены град или гололедные отложения с указанием их диаметра в мм.
Облачность - указаны через наклонную черту общая и нижняя облачность в баллах и высота нижней границы облаков в метрах; квадратными скобками обозначены формы облаков: Ci - перистые, Cs - перисто-слоистые, Cc - перисто-кучевые, Ac - высококучевые, As - высокослоистые, Sc - слоисто-кучевые, Ns - слоисто-дождевые, Cu - кучевые, Cb - кучево-дождевые. Подробнее классификацию облаков см. в Атласе облаков (PDF).
T - Температура воздуха - температура, измеренная на высоте 2 м над землей.
Td - Температура точки росы - температура, при понижении до которой содержащийся в воздухе водяной пар достигнет насыщения.
f - Относительная влажность воздуха - влажноcть воздуха, измеренная на высоте 2 м над землей.
Te - Эффективная температура - температура, которую ощущает одетый по сезону человек в тени. Характеристика душности погоды. При расчете учитывается влияние влажности воздуха и скорости ветра на теплоощущения человека.
Tes - Эффективная температура на солнце - температура, которую ощущает человек, с поправкой на солнечный нагрев. Характеристика знойности погоды. Зависит от высоты солнца над горизонтом, облачности и скорости ветра. Ночью, в пасмурную погоду, а также при ветре 12 м/с и более поправка равна нулю.
P - Атмосферное давление - приведенное к уровню моря атмосферное давление.
Po - Атмосферное давление - измеренное на уровне метеостанции атмосферное давление.
Tmin - Минимальная температура - минимум температуры воздуха на высоте 2 м над землей.
Tmax - Максимальная температура - максимум температуры воздуха на высоте 2 м над землей.
R - Количество осадков - Количество выпавших осадков за период времени, мм. При наведении курсора мыши на число - период времени, за который выпало указанное количество осадков.
R24 - Количество осадков - Количество выпавших осадков за 24 часа, мм.
S - Снежный покров - Высота снежного покрова, см. При наведении курсора мыши на число - состояние снежного покрова и степень покрытия местности в баллах.